| time (UTC) | temp F | wind direction | speed MPH | gust MPH | rain 1hr in | rain 24hr in | rain mn in | humidity % | barometer mb |
| 20260504170504 | 71 | 226 | 7.0 | 13.0 | 0.00 | 0.01 | 0.00 | 55 | 1006.8 |
| 20260504151005 | 64 | 244 | 9.0 | 14.0 | 0.00 | 0.01 | 0.00 | 63 | 1008.1 |
| 20260504150505 | 64 | 227 | 7.0 | 15.0 | 0.00 | 0.01 | 0.00 | 62 | 1008.0 |
| 20260504141004 | 60 | 246 | 6.0 | 12.0 | 0.00 | 0.01 | 0.00 | 63 | 1008.4 |
| 20260504140505 | 60 | 220 | 6.0 | 14.0 | 0.00 | 0.01 | 0.00 | 64 | 1008.5 |
| 20260504130504 | 57 | 215 | 7.0 | 13.0 | 0.00 | 0.01 | 0.00 | 65 | 1009.0 |
| 20260504110504 | 51 | 228 | 3.0 | 6.0 | 0.00 | 0.01 | 0.00 | 69 | 1008.7 |
| 20260504100504 | 51 | 223 | 4.0 | 8.0 | 0.00 | 0.01 | 0.00 | 67 | 1009.1 |
| 20260504082004 | 51 | 222 | 5.0 | 6.0 | 0.00 | 0.01 | 0.00 | 66 | 1010.0 |
| 20260504081004 | 52 | 211 | 3.0 | 12.0 | 0.00 | 0.01 | 0.00 | 65 | 1010.0 |
| 20260504080504 | 51 | 210 | 3.0 | 9.0 | 0.00 | 0.01 | 0.00 | 65 | 1010.1 |
| 20260504050503 | 53 | 218 | 3.0 | 6.0 | 0.00 | 0.01 | 0.00 | 62 | 1012.0 |
| 20260504050004 | 53 | 208 | 4.0 | 7.0 | 0.00 | 0.01 | 0.00 | 63 | 1012.0 |
| 20260504045504 | 53 | 213 | 5.0 | 9.0 | 0.00 | 0.01 | 0.00 | 63 | 1012.0 |
| 20260504045004 | 53 | 227 | 3.0 | 6.0 | 0.00 | 0.01 | 0.00 | 63 | 1012.1 |
| 20260504044504 | 53 | 219 | 4.0 | 6.0 | 0.00 | 0.01 | 0.00 | 64 | 1012.1 |
| 20260504044004 | 53 | 208 | 3.0 | 6.0 | 0.00 | 0.01 | 0.00 | 64 | 1012.0 |
| 20260504043004 | 52 | 223 | 3.0 | 9.0 | 0.00 | 0.01 | 0.00 | 64 | 1012.1 |
| 20260504042504 | 52 | 211 | 2.0 | 5.0 | 0.00 | 0.01 | 0.00 | 65 | 1012.2 |
| 20260504042004 | 52 | 200 | 3.0 | 6.0 | 0.00 | 0.01 | 0.00 | 65 | 1012.3 |
| 20260504041504 | 52 | 220 | 2.0 | 6.0 | 0.00 | 0.01 | 0.00 | 65 | 1012.4 |
| 20260504040504 | 52 | 204 | 3.0 | 6.0 | 0.00 | 0.01 | 0.00 | 66 | 1012.4 |
| 20260504040004 | 52 | 196 | 3.0 | 6.0 | 0.00 | 0.01 | 0.00 | 66 | 1012.5 |
| 20260504035504 | 52 | 198 | 3.0 | 6.0 | 0.00 | 0.01 | 0.01 | 67 | 1012.5 |
| 20260504035003 | 52 | 204 | 3.0 | 6.0 | 0.00 | 0.01 | 0.01 | 67 | 1012.6 |
| 20260504034504 | 52 | 194 | 2.0 | 5.0 | 0.00 | 0.01 | 0.01 | 67 | 1012.6 |
| 20260504034004 | 52 | 185 | 3.0 | 6.0 | 0.00 | 0.01 | 0.01 | 67 | 1012.7 |
| 20260504033504 | 51 | 178 | 3.0 | 5.0 | 0.00 | 0.01 | 0.01 | 68 | 1012.8 |
| 20260504033004 | 51 | 189 | 2.0 | 5.0 | 0.00 | 0.01 | 0.01 | 67 | 1012.8 |
| 20260504032504 | 51 | 183 | 3.0 | 6.0 | 0.00 | 0.01 | 0.01 | 67 | 1012.9 |
| 20260504032004 | 51 | 198 | 3.0 | 6.0 | 0.00 | 0.01 | 0.01 | 67 | 1012.9 |
| 20260504031503 | 51 | 202 | 2.0 | 7.0 | 0.00 | 0.01 | 0.01 | 67 | 1012.9 |
| 20260504031004 | 51 | 187 | 3.0 | 6.0 | 0.00 | 0.01 | 0.01 | 67 | 1013.0 |
| 20260504030505 | 51 | 196 | 3.0 | 6.0 | 0.00 | 0.01 | 0.01 | 67 | 1013.1 |
| 20260504025505 | 51 | 197 | 3.0 | 6.0 | 0.00 | 0.01 | 0.01 | 67 | 1013.1 |
| 20260504025005 | 51 | 206 | 3.0 | 6.0 | 0.00 | 0.01 | 0.01 | 67 | 1013.2 |
| 20260504024505 | 51 | 198 | 3.0 | 6.0 | 0.00 | 0.01 | 0.01 | 68 | 1013.2 |
| 20260504024004 | 51 | 209 | 2.0 | 5.0 | 0.00 | 0.01 | 0.01 | 69 | 1013.2 |
| 20260504023505 | 51 | 185 | 2.0 | 5.0 | 0.00 | 0.01 | 0.01 | 68 | 1013.2 |
| 20260504022505 | 51 | 164 | 4.0 | 7.0 | 0.00 | 0.01 | 0.01 | 69 | 1013.2 |
| 20260504021504 | 50 | 173 | 3.0 | 6.0 | 0.00 | 0.01 | 0.01 | 70 | 1013.2 |
| 20260504021005 | 50 | 190 | 2.0 | 6.0 | 0.00 | 0.01 | 0.01 | 71 | 1013.3 |
| 20260504020504 | 50 | 183 | 4.0 | 8.0 | 0.00 | 0.01 | 0.01 | 71 | 1013.4 |
| 20260504020005 | 50 | 223 | 2.0 | 5.0 | 0.00 | 0.01 | 0.01 | 72 | 1013.4 |
| 20260504015505 | 50 | 173 | 3.0 | 7.0 | 0.00 | 0.01 | 0.01 | 73 | 1013.3 |
| 20260504015005 | 50 | 166 | 3.0 | 6.0 | 0.00 | 0.01 | 0.01 | 73 | 1013.3 |
| 20260504014505 | 50 | 183 | 3.0 | 6.0 | 0.00 | 0.01 | 0.01 | 74 | 1013.3 |
| 20260504014004 | 49 | 163 | 2.0 | 6.0 | 0.00 | 0.01 | 0.01 | 76 | 1013.3 |
| 20260504013505 | 49 | 171 | 1.0 | 5.0 | 0.00 | 0.01 | 0.01 | 77 | 1013.3 |
| 20260504013005 | 49 | 161 | 1.0 | 2.0 | 0.00 | 0.01 | 0.01 | 77 | 1013.3 |
| 20260504012504 | 49 | 171 | 2.0 | 3.0 | 0.00 | 0.01 | 0.01 | 77 | 1013.3 |
| 20260504012005 | 49 | 167 | 1.0 | 2.0 | 0.00 | 0.01 | 0.01 | 78 | 1013.4 |
| 20260504011505 | 49 | 192 | 2.0 | 3.0 | 0.00 | 0.01 | 0.01 | 78 | 1013.3 |
| 20260504011005 | 49 | 178 | 0.0 | 0.0 | 0.00 | 0.01 | 0.01 | 78 | 1013.5 |
| 20260504010505 | 49 | 174 | 0.0 | 0.0 | 0.00 | 0.01 | 0.01 | 78 | 1013.5 |
| 20260504010005 | 49 | 182 | 1.0 | 3.0 | 0.00 | 0.01 | 0.01 | 78 | 1013.4 |
| 20260504005504 | 49 | 122 | 1.0 | 2.0 | 0.00 | 0.01 | 0.01 | 78 | 1013.3 |
| 20260504005005 | 49 | 142 | 1.0 | 2.0 | 0.00 | 0.01 | 0.01 | 78 | 1013.4 |
| 20260504004504 | 49 | 144 | 1.0 | 5.0 | 0.00 | 0.01 | 0.01 | 77 | 1013.3 |
| 20260504004004 | 49 | 142 | 2.0 | 5.0 | 0.00 | 0.01 | 0.01 | 77 | 1013.3 |
| 20260504003504 | 49 | 161 | 2.0 | 5.0 | 0.00 | 0.01 | 0.01 | 78 | 1013.5 |
| 20260504002505 | 49 | 100 | 1.0 | 3.0 | 0.00 | 0.01 | 0.01 | 79 | 1013.4 |
| 20260504001505 | 50 | 149 | 1.0 | 2.0 | 0.00 | 0.01 | 0.01 | 78 | 1013.8 |
| 20260504001005 | 50 | 199 | 0.0 | 1.0 | 0.00 | 0.01 | 0.01 | 78 | 1013.7 |
| 20260504000504 | 50 | 135 | 0.0 | 1.0 | 0.00 | 0.01 | 0.01 | 77 | 1013.6 |
| 20260504000004 | 50 | 131 | 2.0 | 5.0 | 0.00 | 0.01 | 0.01 | 77 | 1013.6 |
| 20260503235505 | 50 | 166 | 2.0 | 3.0 | 0.00 | 0.01 | 0.01 | 78 | 1013.6 |
| 20260503235004 | 50 | 131 | 2.0 | 5.0 | 0.00 | 0.01 | 0.01 | 78 | 1013.6 |
| 20260503234504 | 50 | 146 | 2.0 | 5.0 | 0.00 | 0.01 | 0.01 | 78 | 1013.4 |
| 20260503234005 | 50 | 130 | 2.0 | 6.0 | 0.00 | 0.01 | 0.01 | 78 | 1013.5 |
| 20260503233505 | 50 | 126 | 1.0 | 5.0 | 0.00 | 0.01 | 0.01 | 79 | 1013.6 |
| 20260503233004 | 50 | 144 | 2.0 | 3.0 | 0.01 | 0.01 | 0.01 | 79 | 1013.7 |
| 20260503232504 | 50 | 139 | 1.0 | 5.0 | 0.01 | 0.01 | 0.01 | 80 | 1013.7 |
| 20260503231505 | 49 | 135 | 1.0 | 3.0 | 0.01 | 0.01 | 0.01 | 80 | 1013.8 |
| 20260503231004 | 49 | 131 | 2.0 | 5.0 | 0.01 | 0.01 | 0.01 | 80 | 1013.9 |
| 20260503230504 | 49 | 142 | 1.0 | 3.0 | 0.01 | 0.01 | 0.01 | 80 | 1014.0 |
| 20260503230004 | 49 | 147 | 0.0 | 0.0 | 0.01 | 0.01 | 0.01 | 80 | 1014.1 |
| 20260503225504 | 49 | 120 | 0.0 | 0.0 | 0.01 | 0.01 | 0.01 | 80 | 1014.2 |
| 20260503225004 | 49 | 104 | 1.0 | 5.0 | 0.01 | 0.01 | 0.01 | 80 | 1014.3 |
| 20260503224505 | 49 | 132 | 1.0 | 3.0 | 0.01 | 0.01 | 0.01 | 78 | 1014.5 |
| 20260503224004 | 49 | 109 | 0.0 | 2.0 | 0.01 | 0.01 | 0.01 | 77 | 1014.8 |
| 20260503223505 | 49 | 164 | 1.0 | 2.0 | 0.01 | 0.01 | 0.01 | 77 | 1015.2 |
| 20260503223004 | 49 | 209 | 0.0 | 3.0 | 0.00 | 0.00 | 0.00 | 77 | 1015.6 |
| 20260503222504 | 50 | 263 | 2.0 | 6.0 | 0.00 | 0.00 | 0.00 | 75 | 1015.7 |
| 20260503222005 | 50 | 259 | 3.0 | 6.0 | 0.00 | 0.00 | 0.00 | 73 | 1015.8 |
| 20260503221505 | 51 | 244 | 5.0 | 13.0 | 0.00 | 0.00 | 0.00 | 70 | 1015.8 |
| 20260503221005 | 51 | 241 | 5.0 | 12.0 | 0.00 | 0.00 | 0.00 | 67 | 1015.8 |
| 20260503220505 | 53 | 294 | 7.0 | 17.0 | 0.00 | 0.00 | 0.00 | 64 | 1015.7 |
| 20260503220005 | 54 | 236 | 3.0 | 17.0 | 0.00 | 0.00 | 0.00 | 59 | 1015.5 |
| 20260503215504 | 55 | 248 | 6.0 | 18.0 | 0.00 | 0.00 | 0.00 | 55 | 1015.5 |
| 20260503215005 | 55 | 250 | 5.0 | 14.0 | 0.00 | 0.00 | 0.00 | 53 | 1015.2 |
| 20260503214504 | 55 | 237 | 10.0 | 18.0 | 0.00 | 0.00 | 0.00 | 49 | 1015.0 |
| 20260503214004 | 56 | 261 | 6.0 | 20.0 | 0.00 | 0.00 | 0.00 | 48 | 1015.0 |
| 20260503213505 | 57 | 223 | 6.0 | 22.0 | 0.00 | 0.00 | 0.00 | 46 | 1014.9 |
| 20260503213004 | 58 | 323 | 7.0 | 18.0 | 0.00 | 0.00 | 0.00 | 42 | 1014.8 |
| 20260503212005 | 59 | 283 | 6.0 | 10.0 | 0.00 | 0.00 | 0.00 | 40 | 1014.7 |
| 20260503211504 | 59 | 244 | 5.0 | 12.0 | 0.00 | 0.00 | 0.00 | 40 | 1014.6 |
| 20260503211004 | 59 | 231 | 5.0 | 14.0 | 0.00 | 0.00 | 0.00 | 40 | 1014.7 |
| 20260503210504 | 59 | 262 | 7.0 | 15.0 | 0.00 | 0.00 | 0.00 | 40 | 1014.7 |
| 20260503210005 | 59 | 240 | 10.0 | 18.0 | 0.00 | 0.00 | 0.00 | 39 | 1014.7 |
| 20260503205504 | 59 | 240 | 6.0 | 10.0 | 0.00 | 0.00 | 0.00 | 39 | 1014.7 |
| 20260503205004 | 59 | 243 | 5.0 | 16.0 | 0.00 | 0.00 | 0.00 | 39 | 1014.8 |
| 20260503204504 | 59 | 228 | 11.0 | 18.0 | 0.00 | 0.00 | 0.00 | 38 | 1014.9 |
| 20260503204004 | 60 | 244 | 8.0 | 17.0 | 0.00 | 0.00 | 0.00 | 38 | 1015.0 |
| 20260503203004 | 60 | 181 | 3.0 | 8.0 | 0.00 | 0.00 | 0.00 | 40 | 1015.1 |
| 20260503202504 | 60 | 225 | 8.0 | 18.0 | 0.00 | 0.00 | 0.00 | 37 | 1015.0 |
| 20260503202004 | 61 | 227 | 7.0 | 17.0 | 0.00 | 0.00 | 0.00 | 37 | 1015.1 |
| 20260503201504 | 61 | 252 | 3.0 | 21.0 | 0.00 | 0.00 | 0.00 | 38 | 1015.2 |
| 20260503201004 | 61 | 220 | 6.0 | 21.0 | 0.00 | 0.00 | 0.00 | 36 | 1015.1 |
| 20260503200504 | 62 | 257 | 3.0 | 6.0 | 0.00 | 0.00 | 0.00 | 38 | 1015.1 |
| 20260503195504 | 61 | 216 | 7.0 | 15.0 | 0.00 | 0.00 | 0.00 | 36 | 1015.3 |
| 20260503195005 | 61 | 228 | 3.0 | 20.0 | 0.00 | 0.00 | 0.00 | 37 | 1015.2 |
| 20260503194504 | 62 | 224 | 5.0 | 14.0 | 0.00 | 0.00 | 0.00 | 37 | 1015.3 |
| 20260503194005 | 62 | 254 | 6.0 | 13.0 | 0.00 | 0.00 | 0.00 | 36 | 1015.4 |
| 20260503193505 | 61 | 245 | 5.0 | 14.0 | 0.00 | 0.00 | 0.00 | 38 | 1015.5 |
| 20260503193004 | 62 | 276 | 5.0 | 15.0 | 0.00 | 0.00 | 0.00 | 36 | 1015.6 |
| 20260503192504 | 62 | 251 | 3.0 | 12.0 | 0.00 | 0.00 | 0.00 | 35 | 1015.8 |
| 20260503191504 | 61 | 219 | 5.0 | 13.0 | 0.00 | 0.00 | 0.00 | 38 | 1015.7 |
| 20260503191004 | 61 | 213 | 8.0 | 15.0 | 0.00 | 0.00 | 0.00 | 37 | 1015.9 |
| 20260503190504 | 61 | 257 | 7.0 | 15.0 | 0.00 | 0.00 | 0.00 | 35 | 1016.0 |
| 20260503190004 | 62 | 221 | 6.0 | 12.0 | 0.00 | 0.00 | 0.00 | 36 | 1016.0 |
| 20260503185504 | 61 | 238 | 5.0 | 17.0 | 0.00 | 0.00 | 0.00 | 36 | 1016.2 |
| 20260503184504 | 61 | 230 | 5.0 | 13.0 | 0.00 | 0.00 | 0.00 | 40 | 1016.3 |
| 20260503184005 | 61 | 220 | 7.0 | 16.0 | 0.00 | 0.00 | 0.00 | 36 | 1016.5 |
| 20260503183504 | 61 | 247 | 4.0 | 13.0 | 0.00 | 0.00 | 0.00 | 37 | 1016.5 |
| 20260503183004 | 61 | 296 | 4.0 | 15.0 | 0.00 | 0.00 | 0.00 | 38 | 1016.5 |
| 20260503182505 | 61 | 241 | 6.0 | 12.0 | 0.00 | 0.00 | 0.00 | 38 | 1016.6 |
| 20260503182005 | 60 | 258 | 6.0 | 16.0 | 0.00 | 0.00 | 0.00 | 37 | 1016.7 |
| 20260503181505 | 60 | 226 | 5.0 | 16.0 | 0.00 | 0.00 | 0.00 | 37 | 1016.8 |
| 20260503181004 | 60 | 221 | 5.0 | 13.0 | 0.00 | 0.00 | 0.00 | 38 | 1016.8 |
| 20260503180004 | 60 | 180 | 5.0 | 13.0 | 0.00 | 0.00 | 0.00 | 39 | 1017.0 |
| 20260503175504 | 61 | 249 | 6.0 | 8.0 | 0.00 | 0.00 | 0.00 | 37 | 1017.2 |
| 20260503175004 | 60 | 243 | 5.0 | 14.0 | 0.00 | 0.00 | 0.00 | 38 | 1017.1 |
| 20260503174504 | 60 | 253 | 3.0 | 18.0 | 0.00 | 0.00 | 0.00 | 39 | 1017.2 |
| 20260503174004 | 60 | 259 | 5.0 | 10.0 | 0.00 | 0.00 | 0.00 | 37 | 1017.3 |
| 20260503173504 | 60 | 239 | 5.0 | 13.0 | 0.00 | 0.00 | 0.00 | 38 | 1017.4 |
| 20260503173004 | 59 | 232 | 5.0 | 14.0 | 0.00 | 0.00 | 0.00 | 39 | 1017.5 |
| 20260503171504 | 59 | 241 | 9.0 | 15.0 | 0.00 | 0.00 | 0.00 | 38 | 1017.5 |